Regional Weather Roundup
Issued by NWS

Home | Current Version | Previous Version | Text Only | Print | Product List | Glossary Off
Versions: 1 2 3 4 5 6 7 8 9 10 11 12 13 14 15 16 17 18 19 20 21 22 23 24 25 26 27 28 29 30 31 32 33 34 35 36 37 38 39 40 41 42 43 44 45 46 47 48 49 50

000
ASUS43 KMKX 171311
RWRWI

WISCONSIN REGIONAL WEATHER ROUNDUP
NATIONAL WEATHER SERVICE MILWAUKEE/SULLIVAN WI
800 AM CDT WED SEP 17 2014

NOTE: "FAIR" INDICATES FEW OR NO CLOUDS BELOW 12,000 FEET WITH NO
SIGNIFICANT WEATHER AND/OR OBSTRUCTIONS TO VISIBILITY.

WIZ001-002-006>008-014>016-023>028-171400-
NORTHWEST WISCONSIN

CITY           SKY/WX    TMP DP  RH WIND       PRES   REMARKS
SUPERIOR ARPT  FAIR      45  44  95 CALM      29.94S
ASHLAND        MOSUNNY   45  43  93 CALM      29.95R
HAYWARD        MOSUNNY   41  39  93 CALM      29.96R
SIREN          MOSUNNY   46  46  97 CALM      29.95S
RICE LAKE      CLOUDY    46  45  96 CALM      29.99R
LADYSMITH      MOSUNNY   45  44  93 CALM      29.99S
EAU CLAIRE     MOSUNNY   47  45  93 CALM      29.98R
MENOMONIE      PTSUNNY   48  47  94 CALM      29.98S
NEW RICHMOND   CLOUDY    53  48  84 CALM      29.97R
OSCEOLA        CLOUDY    53  51  93 SE5       29.99R
$$

WIZ003>005-009-010-017-018-171400-
NORTH CENTRAL WISCONSIN

CITY           SKY/WX    TMP DP  RH WIND       PRES   REMARKS
WOODRUFF       SUNNY     44  42  93 CALM      29.97S
RHINELANDER    MOSUNNY   47  43  86 SW3       29.98S
EAGLE RIVER    SUNNY     43  43 100 CALM      29.96S
LAND O LAKES   MOSUNNY   42  42  99 CALM      29.97S
PHILLIPS       MOSUNNY   43  41  93 CALM      29.97R
TOMAHAWK       MOSUNNY   44  42  96 CALM      29.98S
MEDFORD        PTSUNNY   46  44  93 SW3       29.98S
MERRILL        PTSUNNY   38  38 100 CALM      29.99S
$$

WIZ029-030-035-036-043>047-171400-
CENTRAL WISCONSIN

CITY           SKY/WX    TMP DP  RH WIND       PRES   REMARKS
WAUSAU         CLOUDY    46  43  89 SE7       29.98S
MOSINEE        PTSUNNY   45  45 100 S5        30.01R
MARSHFIELD     CLOUDY    45  43  93 CALM      30.00R
STEVENS POINT  MOSUNNY   43  41  93 CALM      30.01S
WAUPACA        SUNNY     43  41  95 CALM      30.01F
WAUTOMA        SUNNY     41  39  92 CALM      30.03S
WISC RAPIDS    MOSUNNY   45  44  97 CALM      30.02S
CAMP DOUGLAS   PTSUNNY   46  46 100 SE3       30.01S
$$

WIZ011>013-019>022-031-037>040-048>050-171400-
NORTHEAST WISCONSIN

CITY           SKY/WX    TMP DP  RH WIND       PRES   REMARKS
ANTIGO         MOSUNNY   43  42  98 CALM      29.99F
STURGEON BAY   SUNNY     52  45  76 SW9       30.00S
GREEN BAY      SUNNY     48  46  93 SW3       30.01S
MANITOWOC      SUNNY     51  45  79 W7        30.02S
APPLETON       MOSUNNY   48  45  87 SW8       30.02S
CLINTONVILLE   SUNNY     45  43  93 CALM      30.01S
OSHKOSH        SUNNY     49  45  86 S6        30.01S
$$

WIZ032>034-041-042-053>061-171400-
SOUTHWEST WISCONSIN

CITY           SKY/WX    TMP DP  RH WIND       PRES   REMARKS
LA CROSSE      CLOUDY    52  48  86 SE7       30.00F
SPARTA         CLOUDY    42  42  98 CALM      30.02S
VIROQUA        CLOUDY    50  46  87 S5        30.02S
BOSCOBEL       FOG       46  44  93 CALM      30.04R VSB<1/4
PRAIRIE DU CHI CLOUDY    45  44  96 CALM      30.02R FOG
PLATTEVILLE    CLOUDY    50  46  86 CALM      30.03F
$$

WIZ056-057-062-063-064-067-068-171400-
SOUTH CENTRAL WISCONSIN

CITY           SKY/WX    TMP DP  RH WIND       PRES   REMARKS
BARABOO/DELLS  PTSUNNY   49  45  88 CALM      30.02S
LONE ROCK      CLOUDY    46  42  86 CALM      30.04S
WATERTOWN      MOSUNNY   45  44  99 CALM      30.03F
MADISON        MOSUNNY   47  44  90 CALM      30.03S
MIDDLETON      FAIR      51  50  98 CALM      30.03F
MONROE         SUNNY     50  43  76 S6        30.03S
JANESVILLE     SUNNY     45  39  81 CALM      30.04S
$$

WIZ051-052-058>065-066-070>072-171400-
SOUTHEAST WISCONSIN

CITY           SKY/WX    TMP DP  RH WIND       PRES   REMARKS
MILWAUKEE      MOSUNNY   52  45  77 CALM      30.05R
WAUKESHA       MOSUNNY   46  45  93 S3        30.05S
MILWAUKEE/TIMM MOSUNNY   46  43  87 CALM      30.05S
RACINE         SUNNY     51  44  77 W5        30.06S
BURLINGTON     SUNNY     40  40 100 CALM      30.04F
KENOSHA        SUNNY     48  47  96 CALM      30.05S
FOND DU LAC    SUNNY     48  44  86 S3        30.02F
SHEBOYGAN      SUNNY     48  44  86 CALM      30.03S
WEST BEND      PTSUNNY   45  43  93 CALM      30.03F
JUNEAU         SUNNY     44  43  94 CALM      30.04S
$$

LSZ147-162-171400-
LAKE SUPERIOR

STATION/POSITION TIME  TEMP    WIND        PRES    WAVE
                       AIR SEA DIR/SP/G            HT/PER
                 (UTC) (F)     (DEG/KT/KT) (MB)    (FT/S)
W MID LAKE BUOY  1250   47 46   80/ 10/ 10 1014.0R   2/ 4
DEVILS ISLAND    1300   49      10/ 16/ 18 1015.0R
PORT WING        1200   47     150/  3/  6 1013.5F
SAXON HARBOR     1200   50     190/  5/  8 1013.5S
$$

LMZ867-665-643>646-171400-
LAKE MICHIGAN

STATION/POSITION TIME  TEMP    WIND        PRES    WAVE
                       AIR SEA DIR/SP/G            HT/PER
                 (UTC) (F)     (DEG/KT/KT) (MB)    (FT/S)
N MID LAKE BUOY  1250   57 58  240/ 14/ 16 1014.8F   2/ 3
NORTHPORT PIER   1200   54     280/  4/  6 1015.2R
KEWAUNEE LAKESHO 1200   47     300/  5/  7 1015.1R
SHEBOYGAN LAKESH 1300   52 50  260/  8/  9 1017.1F
PORT WASHINGTON  1200   50     260/  4/  5 1017.6
ATWATER BUOY     1300   53     240/ 10/ 12 1018.1F
MILWAUKEE LAKESH 1200   53     270/  4/  5   N/A
S MID LAKE BUOY  1250   61 65  230/ 10/ 12 1017.5R   1/ 3
KENOSHA   LAKESH 1300   54     260/  7/  8 1017.3S
$$

TC  - TEMPERATURE IN CELSIUS
VSB - VISIBILITY IN STATUTE MILES
WCI - WIND CHILL INDEX
HX  - HEAT INDEX



USA.gov is the U.S. government's official web portal to all federal, state and local government web resources and services.